sat.trackr.live / text

‹ back to catalog

STARLINK-5084

NORAD 54851 · 2022-177AH

PAYLOAD ACTIVE UNKNOWN

§ Identity

Operator
Country
US
Launch date
2022-12-28
Launch site
AFETR
Launch vehicle
Mass (kg)
RCS (m²)

Purposes: comms

External: N2YO · Heavens-Above · Gunter

§ Orbital elements

Epoch: 2026-09-20T22:21:57.565728Z

Period
94.27 min
Inclination
43.0042°
Eccentricity
0.0001460
Mean motion
15.27564537 rev/d
Perigee alt
482.1 km
Apogee alt
484.1 km
Semi-major
6,861.2 km
B*
-9.5859e-5
RAAN
98.6829°
Arg perigee
290.0182°
Mean anomaly
70.0512°
Rev number
20,695

§ Raw data

STARLINK-50841 54851U 22177AH  26263.93191627 -.00002898  00000+0 -95859-4 0  99972 54851  43.0042  98.6829 0001460 290.0182  70.0512 15.27564537206955

JSON: /api/v1/satellites/54851 · /tle

For live sub-satellite position, see the globe view (requires WebGL).

§ Visibility from observer

Set your observer location to see the next 7 days of passes ≥ 10°. The values pass through the URL so the page stays shareable.

No JS? Fill the form by hand. The geolocation button needs JavaScript.